Torna al catalogo

STARLINK-11413

AttivoComunicazioniVLEO
NORAD 62593·PAYLOAD·🇺🇸 United States

Lanciato Jan 13, 2025 da Cape Canaveral Space Force Station

Loading…

Prossimi Passaggi (prossime 24 ore)

TLE

AggiornatoSource: CelesTrak SupGP

Epoca: Sep 15, 2026, 02:12 UTC

1 62593C 25008G   26258.09215278  .00002932  00000+0  22765-4 0  2586
2 62593  43.0009  64.7871 0001616 269.4206 291.0784 15.70848061    11

Traccia STARLINK-11413 in tempo reale con AllMySat

Download on the App Store